Flag for Canada Weather past 2 weeks in Coral Harbour, Nunavut Territory, Canada

Now
-9 °F

Passing clouds.


Feels Like: -29 °F
Forecast: -23 / -8 °F
Wind: 12 mph from North

Location: Coral Harbour

Current Time: Dec 23, 2014 at 12:25:10 AM

Latest Report: Dec 22, 2014 at 11:00 PM


Visibility: 15 mi

Pressure: 30.06 "Hg

Humidity: 70%

Dew point: -17 °F

Location of Coral HarbourLocation

Historic Weather in Coral Harbour — Graph

°F

Coral Harbour temperature yesterday

Maximum temperature yesterday: 18 °F (at 1:00 AM)
Minimum temperature yesterday: -6 °F (at 10:00 PM)
Average temperature yesterday: 8 °F

Past Weeks' High & Low Weather Summary

 TemperatureHumidityPressure
High18 °F (Dec 22, 1:00 AM)100% (Dec 18, 9:00 AM)30.32 "Hg (Dec 18, 9:00 AM)
Low-29 °F (Dec 7, 10:00 PM)57% (Dec 15, 12:00 PM)29.42 "Hg (Dec 11, 2:00 AM)
Average-4 °F74%29.97 "Hg
* Reported Dec 7 10:00 PM — Dec 22 10:00 PM, Coral Harbour, Weather by CustomWeather, © 2014

Note: Actual official high and low records may vary slightly from our data, if they occured in-between our weather recording intervals... More about our weather records

Advertising

Coral Harbour weather history for previous 24 hours

 ConditionsComfort  
Time TempWeatherWind HumidityBarometerVisibility
10:00 PM
Dec 22
-6 °FLight snow. Passing clouds.17 mph70%30.04 "Hg15 mi
9:00 PM-2 °FLight snow. Passing clouds.17 mph71%30.03 "Hg15 mi
8:00 PM0 °FLight snow. Overcast.18 mph71%30.02 "Hg15 mi
7:00 PM1 °FLight snow. Overcast.23 mph71%29.99 "Hg12 mi
6:00 PM1 °FLight snow. Overcast.24 mph78%29.97 "Hg10 mi
5:00 PM3 °FLight snow. Overcast.25 mph72%29.96 "Hg12 mi
4:00 PM3 °FLight snow. Overcast.26 mph78%29.93 "Hg6 mi
1:00 PM7 °FLight snow. Overcast.21 mph72%29.88 "Hg6 mi
12:00 PM7 °FLight snow. Overcast.22 mph78%29.87 "Hg8 mi
11:00 AM7 °FLight snow. Overcast.24 mph78%29.85 "Hg8 mi
10:00 AM9 °FLight snow. Overcast.21 mph72%29.85 "Hg12 mi
9:00 AM9 °FLight snow. Overcast.10 mph72%29.83 "Hg12 mi
8:00 AM10 °FLight snow. Overcast.18 mph79%29.81 "Hg12 mi
7:00 AM12 °FLight snow. Overcast.18 mph73%29.79 "Hg12 mi
6:00 AM12 °FLight snow. Overcast.18 mph79%29.78 "Hg12 mi
5:00 AM12 °FLight snow. Mostly cloudy.16 mph85%29.77 "Hg12 mi
4:00 AM14 °FLight snow. Low clouds.13 mph85%29.77 "Hg8 mi
3:00 AM18 °FLight snow. Low clouds.No wind86%29.76 "Hg6 mi
2:00 AM18 °FLight snow. Low clouds.5 mph93%29.75 "Hg6 mi
1:00 AM18 °FLight snow. Low clouds.5 mph93%29.75 "Hg2 mi
12:00 AM16 °FLight snow. Low clouds.8 mph93%29.75 "Hg2 mi
Weather by CustomWeather, © 2014

See weather overviewHow to use our weather pages